Flag for Netherlands Weather past 2 weeks in Amsterdam, Netherlands

Now
43 °F

Passing clouds.


Feels Like: 39 °F
Forecast: 36 / 50 °F
Wind: 7 mph from North

Location: Amsterdam Schiphol Airport

Current Time: Apr 27, 2015 at 4:32:51 AM

Latest Report: Apr 27, 2015 at 3:55 AM


Visibility: N/A

Pressure: 29.74 "Hg

Humidity: 81%

Dew point: 37 °F

Location of AmsterdamLocation

Historic Weather in Amsterdam — Graph

°F

Amsterdam temperature yesterday

Maximum temperature yesterday: 52 °F (at 12:55 AM)
Minimum temperature yesterday: 46 °F (at 10:55 PM)
Average temperature yesterday: 50 °F

Past Weeks' High & Low Weather Summary

 TemperatureHumidityPressure
High70 °F (Apr 15, 3:25 PM)100% (Apr 12, 4:55 AM)30.51 "Hg (Apr 12, 4:55 AM)
Low36 °F (Apr 19, 4:55 AM)34% (Apr 24, 4:55 PM)29.68 "Hg (Apr 25, 5:25 PM)
Average50 °F74%30.16 "Hg
* Reported Apr 12 3:25 AM — Apr 27 3:25 AM, Amsterdam, Weather by CustomWeather, © 2015

Note: Actual official high and low records may vary slightly from our data, if they occured in-between our weather recording intervals... More about our weather records

Advertising

Amsterdam weather history for previous 24 hours

 ConditionsComfort  
Time TempWeatherWind HumidityBarometerVisibility
3:25 AM
Mon, Apr 27
43 °FPassing clouds.9 mph81%29.74 "HgN/A
2:55 AM45 °FPassing clouds.9 mph81%29.74 "HgN/A
2:25 AM45 °FPassing clouds.10 mph81%29.74 "HgN/A
1:55 AM46 °FPassing clouds.9 mph76%29.74 "HgN/A
1:25 AM46 °FPassing clouds.12 mph76%29.74 "HgN/A
12:55 AM46 °FPassing clouds.10 mph76%29.74 "HgN/A
12:25 AM46 °FPassing clouds.10 mph82%29.74 "HgN/A
11:55 PM
Sun, Apr 26
46 °FPassing clouds.12 mph82%29.74 "HgN/A
11:25 PM46 °FPassing clouds.12 mph82%29.74 "HgN/A
10:55 PM46 °FPassing clouds.9 mph82%29.74 "HgN/A
10:25 PM48 °FPassing clouds.9 mph82%29.74 "HgN/A
9:55 PM48 °FBroken clouds.8 mph82%29.74 "HgN/A
9:25 PM48 °FBroken clouds.9 mph82%29.71 "HgN/A
8:55 PM48 °FPartly sunny.10 mph82%29.71 "HgN/A
8:25 PM48 °FPartly sunny.9 mph82%29.71 "HgN/A
7:55 PM48 °FPartly sunny.8 mph87%29.71 "HgN/A
7:25 PM50 °FMostly cloudy.9 mph82%29.71 "HgN/A
6:55 PM50 °FMostly cloudy.10 mph82%29.71 "HgN/A
6:25 PM50 °FMostly cloudy.10 mph82%29.71 "HgN/A
5:55 PM50 °FMostly cloudy.9 mph82%29.71 "HgN/A
5:25 PM50 °FMostly cloudy.9 mph82%29.71 "HgN/A
4:55 PM50 °FCloudy.9 mph88%29.71 "HgN/A
4:25 PM50 °FMostly cloudy.8 mph88%29.74 "HgN/A
3:55 PM50 °FDrizzle. Mostly cloudy.8 mph88%29.74 "HgN/A
3:25 PM50 °FDrizzle. Broken clouds.9 mph88%29.74 "HgN/A
2:55 PM50 °FBroken clouds.8 mph88%29.74 "HgN/A
2:25 PM50 °FBroken clouds.8 mph88%29.74 "HgN/A
1:55 PM52 °FBroken clouds.9 mph82%29.74 "HgN/A
1:25 PM50 °FDrizzle. Broken clouds.7 mph94%29.74 "HgN/A
12:55 PM50 °FPartly sunny.8 mph88%29.74 "HgN/A
12:25 PM50 °FBroken clouds.8 mph94%29.74 "HgN/A
11:55 AM50 °FPartly sunny.7 mph94%29.74 "HgN/A
11:25 AM50 °FBroken clouds.7 mph94%29.74 "HgN/A
10:55 AM50 °FDrizzle. Broken clouds.9 mph94%29.71 "Hg4 mi
10:25 AM50 °FDrizzle. Partly sunny.10 mph94%29.71 "Hg4 mi
9:55 AM50 °FDrizzle. Fog.8 mph100%29.71 "Hg2 mi
9:25 AM52 °FDrizzle. Fog.6 mph94%29.71 "Hg2 mi
8:55 AM52 °FSleet. Cloudy.8 mph94%29.71 "Hg1 mi
8:25 AM52 °FDrizzle. Fog.9 mph94%29.68 "Hg2 mi
7:55 AM52 °FFog.10 mph94%29.68 "Hg2 mi
7:25 AM52 °FDrizzle. Fog.10 mph94%29.68 "Hg3 mi
6:55 AM52 °FFog.10 mph94%29.68 "Hg3 mi
6:25 AM52 °FPassing clouds.10 mph94%29.68 "Hg4 mi
5:55 AM52 °FSprinkles. Passing clouds.9 mph94%29.68 "Hg6 mi
5:25 AM52 °FPassing clouds.9 mph94%29.68 "HgN/A
4:55 AM52 °FPassing clouds.10 mph94%29.68 "HgN/A
4:25 AM52 °FPassing clouds.8 mph94%29.68 "HgN/A
Weather by CustomWeather, © 2015

See weather overviewHow to use our weather pages